www.pogodaiklimat.ru
ПОГОДА в Уильямспорте
Время
и дата
14:54 07.02
15:54 07.02
16:54 07.02
17:54 07.02
18:54 07.02
19:54 07.02
20:54 07.02
21:54 07.02
22:54 07.02
23:54 07.02
00:54 08.02
01:31 08.02
01:54 08.02
02:18 08.02
02:54 08.02
03:15 08.02
03:47 08.02
03:54 08.02
04:54 08.02
05:54 08.02
06:54 08.02
07:19 08.02
07:27 08.02
07:52 08.02
07:54 08.02
08:19 08.02
08:54 08.02
09:54 08.02
10:54 08.02
11:54 08.02
12:54 08.02
13:54 08.02
14:54 08.02
15:54 08.02
16:54 08.02
17:54 08.02
18:54 08.02
19:54 08.02
20:54 08.02
21:54 08.02
22:54 08.02
23:54 08.02
00:54 09.02
01:54 09.02
02:54 09.02
03:54 09.02
04:54 09.02
05:54 09.02
Ветер
(напр.,м/с)
Видим. Явления Облачность Т
(С)
Тd
(С)
f
(%)
Тe
(С)
Тes
(С)
Комфортность P
(гПа)
Po
(гПа)
Тmin
(С)
Tmax
(С)
R
(мм)
R24
(мм)
S
(см)
нст 3 16 км 2/2 1950 м +5.0 -2.8 57 +2 +5 1020.7 1000.5
В 5
{9}
16 км 10/10 1470 м +5.0 -2.8 57 +1 +1 1019.5 999.5
нст 2
{8}
16 км 10/10 1500 м +5.0 -2.2 60 +3 +3 1019.0 999.2
нст 2 16 км 10/10 1470 м +5.6 -2.2 57 +4 +4 1019.4 999.5
нст 2 16 км 10/10 1650 м +5.6 -1.7 59 +4 +4 1020.6 1000.5 +3.3 +5.6
нст 2 16 км 10/8 1500 m
[Ac]
+3.9 0.0 76 +1 +1 1020.7 1000.9
штиль 0 16 км 10/8 1650 m
[Ac]
+3.9 0.0 76 +3 +3 1019.9 999.9
штиль 0 13 км ясно +3.3 0.0 79 +2 +2 1019.4 999.5 0.3
штиль 0 10 км дымка ясно +1.7 -0.6 85 +1 +1 1018.7 998.9
З 2 5 км дымка ясно -0.6 -1.7 92 -4 -4 1018.7 998.9
СЗ 2 8 км дымка 10/10 690 м 0.0 -1.1 92 -4 -4 1019.3 999.5 -1.1 +5.0 0.3
штиль 0 8 км дымка 8/8 600 м 0.0 -1.1 92 -1 -1 999.2
штиль 0 8 км дымка 10/10 540 м +0.6 -0.6 92 -1 -1 1019.2 999.2
штиль 0 6 км дымка 10/10 540 м -0.6 -1.7 92 -2 -2 999.2
штиль 0 6 км дымка 2/2 1500 м -1.1 -1.7 96 -2 -2 1019.4 999.5
ЮЗ 2 3 км дымка 2/2 1260 м -1.7 -2.2 96 -6 -6 999.9
З 3 4 км дымка 8/8 1140 м -1.1 -1.7 96 -6 -6 1000.2
СЗ 2 5 км дымка 10/10 1200 м -1.1 -1.7 96 -5 -5 1020.0 1000.2
ЮЗ 2 6 км дымка 10/10 1050 м 0.0 -1.1 92 -4 -4 1021.1 1001.2
ЮЗ 2 5 км дымка 10/10 900 м 0.0 -1.1 92 -4 -4 1021.4 1001.5
штиль 0 5 км дымка 8/8 1020 м -1.1 -1.7 96 -2 -2 1022.4 1002.5 -2.2 +1.1 0.3
штиль 0 3 км дымка 8/8 990 м -0.6 -1.7 92 -2 -2 1003.2
штиль 0 3 км дымка 8/8 990 м -1.1 -1.7 96 -2 -2 1003.2
штиль 0 4 км дымка 2/2 930 м -1.0 -2.0 93 -2 -2 1003.9
штиль 0 4 км дымка 2/2 930 м -0.6 -1.7 92 -2 -2 1023.7 1003.9
штиль 0 6 км дымка ясно 0.0 -1.1 92 -1 0 1004.2
З 3 5 км мгла 2/2 1110 м +2.2 -0.6 82 -2 -2 1024.5 1004.5
З 4 13 км 8/8 1050 м +4.4 0.0 73 0 +1 1025.2 1005.2
СЗ 5 16 км 2/2 1110 м +7.2 -1.7 53 +4 +6 1025.3 1005.5
З 4 16 км ясно +8.3 -2.2 48 +6 +10 1024.8 1004.9
З 5 16 км ясно +9.4 -2.2 44 +7 +10 1024.6 1004.9 -1.7 +9.4
З 5 16 км ясно +10.0 -2.8 41 +7 +11 1024.0 1004.2
ЮЗ 5 16 км ясно +10.6 -2.8 39 +8 +11 1024.1 1004.2
З 3 16 км ясно +10.6 -3.3 38 +9 +12 1024.4 1004.5
штиль 0 16 км ясно +6.7 -1.7 55 +6 +8 1024.7 1004.9
штиль 0 16 км ясно +5.6 -2.8 55 +5 +5 1025.3 1005.2
штиль 0 16 км ясно +2.8 -2.8 67 +2 +2 1025.7 1005.8 +1.1 +11.1
штиль 0 16 км ясно +1.1 -3.3 72 0 0 1026.3 1006.2
З 2 16 км ясно +1.1 -3.3 72 -2 -2 1026.8 1006.8
штиль 0 16 км ясно -1.1 -4.4 78 -2 -2 1026.7 1006.5
штиль 0 16 км ясно -0.6 -3.9 78 -2 -2 1026.5 1006.5
штиль 0 16 км ясно -2.2 -3.9 88 -3 -3 1025.9 1005.8
штиль 0 16 км ясно -2.2 -4.4 85 -3 -3 1026.0 1006.2 -2.8 +2.8
штиль 0 16 км ясно -2.2 -4.4 85 -3 -3 1024.7 1004.9
штиль 0 16 км ясно -1.7 -4.4 82 -3 -3 1024.4 1004.5
штиль 0 16 км 8/0 2850 m
[Ac]
-1.1 -3.3 85 -2 -2 1023.9 1004.2
ЮВ 2 16 км 10/0 2400 m
[Ac]
-1.1 -3.3 85 -5 -5 1024.1 1004.2
ЮВ 2 11 км неопределенные осадки 10/8 1500 m
[Ac Cb]
-0.6 -2.2 89 -4 -4 1023.7 1003.9
Местоположение метеостанции Williamsport Regional Airport: широта 41.2417 долгота -76.9208 высота над уровнем моря 161 м.
В архиве по умолчанию представлена погода в Уильямспорте за последние 1-2 суток. Обновление информации о фактической погоде в базе происходит ежечасно! Архивные данные за месяц целиком и за предыдущие месяцы Вы можете получить, выбрав интересующий диапазон дат из раскрывающегося списка и нажав кнопку "Ввод!".
Внимание! Архив погоды МЕТАР в базе сайта по станциям, не включенным в климатический монитор, хранится не более 60 дней. Нет смысла пытаться выбрать более раннюю дату.
*Определитесь, кто Вы:
Внимание! Время в таблицах - местное (без учета летнего времени). Для получения всемирного времени необходимо вычесть поправку, которая равна -5 ч.
Смотрите также архив погоды в соседних городах и на ближайших метеорологических станциях:
Партнеры нашего сайта:      
Пояснения к столбцам:
  • Ветер - указаны скорость ветра в м/с - средняя за 10 мин, порывы в срок и между сроками (в фигурных скобках) и направление, откуда дует ветер: С - северный,
  • СВ - северо-восточный, В - восточный, ЮВ - юго-восточный, Ю - южный, ЮЗ - юго-западный, З - западный, СЗ - северо-западный.
  • Видимость - горизонтальная дальность видимости в метрах или километрах. При видимости от 1 до 10 км при отсутствии осадков обычно наблюдается дымка, при ухудшении видимости до 1 км и менее - туман. В сухую погоду видимость может ухудшаться дымом, пылью или мглою.
  • Явления - указаны атмосферные явления, наблюдавшиеся в срок или в последний час перед сроком; фигурными скобками обозначены явления, наблюдавшиеся между сроками (за 1-3 часа до срока); квадратными скобками обозначены град или гололедные отложения с указанием их диаметра в мм.
  • Облачность - указаны через наклонную черту общая и нижняя облачность в баллах и высота нижней границы облаков в метрах; квадратными скобками обозначены формы облаков: Ci - перистые, Cs - перисто-слоистые, Cc - перисто-кучевые, Ac - высококучевые, As - высокослоистые, Sc - слоисто-кучевые, Ns - слоисто-дождевые, Cu - кучевые, Cb - кучево-дождевые. Подробнее классификацию облаков см. в Атласе облаков (PDF).
  • T - Температура воздуха - температура, измеренная на высоте 2 м над землей.
  • Td - Температура точки росы - температура, при понижении до которой содержащийся в воздухе водяной пар достигнет насыщения.
  • f - Относительная влажность воздуха - влажноcть воздуха, измеренная на высоте 2 м над землей.
  • Te - Эффективная температура - температура, которую ощущает одетый по сезону человек в тени. Характеристика душности погоды. При расчете учитывается влияние влажности воздуха и скорости ветра на теплоощущения человека.
  • Tes - Эффективная температура на солнце - температура, которую ощущает человек, с поправкой на солнечный нагрев. Характеристика знойности погоды. Зависит от высоты солнца над горизонтом, облачности и скорости ветра. Ночью, в пасмурную погоду, а также при ветре 12 м/с и более поправка равна нулю.
  • P - Атмосферное давление - приведенное к уровню моря атмосферное давление.
  • Po - Атмосферное давление - измеренное на уровне метеостанции атмосферное давление.
  • Tmin - Минимальная температура - минимум температуры воздуха на высоте 2 м над землей.
  • Tmax - Максимальная температура - максимум температуры воздуха на высоте 2 м над землей.
  • R - Количество осадков - Количество выпавших осадков за период времени, мм. При наведении курсора мыши на число - период времени, за который выпало указанное количество осадков.
  • R24 - Количество осадков - Количество выпавших осадков за 24 часа, мм.
  • S - Снежный покров - Высота снежного покрова, см. При наведении курсора мыши на число - состояние снежного покрова и степень покрытия местности в баллах.